• In Hungary
  • List of Countries
  • For 7 days
  • Water Temperature
  • Satellite Maps
  • Weather Map
  • News
  • Weather Widgets
  • user-avatar
    Login

    Hourly Weather Lilongwe

    Today, 22 September, Saturday

    Time Temperature Precipitation Wind Pressure Humidity
    00:00 +24°C° 0 mm 2 mps 673 mmHg 27%
    01:00 +23°C° 0 mm 2 mps 673 mmHg 28%
    02:00 +21°C° 0 mm 2 mps 673 mmHg 29%
    03:00 +21°C° 0 mm 2 mps 673 mmHg 32%
    04:00 +21°C° 0 mm 3 mps 673 mmHg 35%
    05:00 +20°C° 0 mm 3 mps 673 mmHg 37%
    06:00 +22°C° 0 mm 3 mps 674 mmHg 36%
    07:00 +25°C° 0 mm 4 mps 674 mmHg 35%
    08:00 +26°C° 0 mm 5 mps 675 mmHg 35%
    09:00 +28°C° 0 mm 5 mps 675 mmHg 31%
    10:00 +29°C° 0 mm 5 mps 675 mmHg 27%
    11:00 +32°C° 0 mm 5 mps 675 mmHg 23%
    12:00 +32°C° 0 mm 5 mps 675 mmHg 21%
    13:00 +33°C° 0 mm 4 mps 674 mmHg 19%
    14:00 +34°C° 0 mm 4 mps 674 mmHg 17%
    15:00 +33°C° 0 mm 4 mps 673 mmHg 17%
    16:00 +32°C° 0 mm 4 mps 673 mmHg 17%
    17:00 +30°C° 0 mm 4 mps 673 mmHg 18%
    18:00 +29°C° 0 mm 3 mps 673 mmHg 19%
    19:00 +27°C° 0 mm 2 mps 673 mmHg 21%
    20:00 +26°C° 0 mm 2 mps 673 mmHg 23%
    21:00 +25°C° 0 mm 2 mps 673 mmHg 23%
    22:00 +25°C° 0 mm 2 mps 674 mmHg 24%
    23:00 +24°C° 0 mm 2 mps 674 mmHg 24%

    Tomorrow, 23 September, Sunday

    Time Temperature Precipitation Wind Pressure Humidity
    00:00 +24°C° 0 mm 2 mps 674 mmHg 29%
    01:00 +22°C° 0 mm 3 mps 673 mmHg 35%
    02:00 +21°C° 0 mm 3 mps 673 mmHg 40%
    03:00 +21°C° 0 mm 3 mps 673 mmHg 43%
    04:00 +21°C° 0 mm 3 mps 673 mmHg 47%
    05:00 +20°C° 0 mm 3 mps 673 mmHg 51%
    06:00 +22°C° 0 mm 4 mps 674 mmHg 48%
    07:00 +23°C° 0 mm 4 mps 675 mmHg 45%
    08:00 +25°C° 0 mm 5 mps 676 mmHg 42%
    09:00 +27°C° 0 mm 5 mps 676 mmHg 38%
    10:00 +29°C° 0 mm 5 mps 676 mmHg 33%
    11:00 +30°C° 0 mm 4 mps 676 mmHg 29%
    12:00 +32°C° 0 mm 4 mps 675 mmHg 27%
    13:00 +33°C° 0 mm 4 mps 674 mmHg 25%
    14:00 +33°C° 0 mm 4 mps 674 mmHg 23%
    15:00 +32°C° 0 mm 4 mps 673 mmHg 23%
    16:00 +32°C° 0 mm 4 mps 673 mmHg 24%
    17:00 +30°C° 0 mm 4 mps 673 mmHg 25%
    18:00 +29°C° 0 mm 3 mps 673 mmHg 27%
    19:00 +27°C° 0 mm 2 mps 673 mmHg 30%
    20:00 +26°C° 0 mm 2 mps 673 mmHg 32%
    21:00 +25°C° 0 mm 2 mps 673 mmHg 33%
    22:00 +25°C° 0 mm 2 mps 674 mmHg 34%
    23:00 +24°C° 0 mm 2 mps 674 mmHg 34%

    Day after tomorrow, 24 September, Monday

    Time Temperature Precipitation Wind Pressure Humidity
    00:00 +23°C° 0 mm 2 mps 673 mmHg 36%
    01:00 +23°C° 0 mm 2 mps 673 mmHg 38%
    02:00 +21°C° 0 mm 2 mps 672 mmHg 41%
    03:00 +21°C° 0 mm 2 mps 672 mmHg 42%
    04:00 +21°C° 0 mm 2 mps 672 mmHg 44%
    05:00 +20°C° 0 mm 3 mps 672 mmHg 46%
    06:00 +22°C° 0 mm 3 mps 673 mmHg 44%
    07:00 +23°C° 0 mm 4 mps 674 mmHg 43%
    08:00 +25°C° 0 mm 5 mps 675 mmHg 42%
    09:00 +27°C° 0 mm 4 mps 675 mmHg 38%
    10:00 +29°C° 0 mm 4 mps 675 mmHg 34%
    11:00 +30°C° 0 mm 4 mps 675 mmHg 31%
    12:00 +32°C° 0 mm 4 mps 674 mmHg 28%
    13:00 +33°C° 0 mm 3 mps 674 mmHg 25%
    14:00 +33°C° 0 mm 3 mps 673 mmHg 23%
    15:00 +33°C° 0 mm 3 mps 673 mmHg 23%
    16:00 +32°C° 0 mm 4 mps 672 mmHg 24%
    17:00 +30°C° 0 mm 4 mps 672 mmHg 25%
    18:00 +29°C° 0 mm 3 mps 672 mmHg 28%
    19:00 +27°C° 0 mm 3 mps 672 mmHg 31%
    20:00 +26°C° 0 mm 2 mps 673 mmHg 34%
    21:00 +25°C° 0 mm 2 mps 673 mmHg 36%
    22:00 +25°C° 0 mm 1 mps 673 mmHg 37%
    23:00 +24°C° 0 mm 1 mps 673 mmHg 39%

    25 September, Tuesday

    Time Temperature Precipitation Wind Pressure Humidity
    00:00 +23°C° 0 mm 1 mps 672 mmHg 40%
    01:00 +23°C° 0 mm 1 mps 672 mmHg 42%
    02:00 +23°C° 0 mm 2 mps 671 mmHg 44%
    03:00 +21°C° 0 mm 2 mps 672 mmHg 46%
    04:00 +21°C° 0 mm 2 mps 672 mmHg 49%
    05:00 +20°C° 0 mm 2 mps 672 mmHg 51%
    06:00 +22°C° 0 mm 3 mps 673 mmHg 48%
    07:00 +23°C° 0 mm 4 mps 674 mmHg 45%
    08:00 +26°C° 0 mm 5 mps 675 mmHg 42%
    09:00 +27°C° 0 mm 5 mps 675 mmHg 38%
    10:00 +29°C° 0 mm 5 mps 675 mmHg 35%
    11:00 +32°C° 0 mm 4 mps 675 mmHg 31%
    12:00 +32°C° 0 mm 4 mps 674 mmHg 30%
    13:00 +33°C° 0 mm 4 mps 673 mmHg 28%
    14:00 +33°C° 0 mm 4 mps 672 mmHg 26%
    15:00 +33°C° 0 mm 4 mps 672 mmHg 27%
    16:00 +32°C° 0 mm 4 mps 672 mmHg 29%
    17:00 +30°C° 0 mm 4 mps 672 mmHg 30%
    18:00 +29°C° 0 mm 3 mps 672 mmHg 34%
    19:00 +27°C° 0 mm 3 mps 672 mmHg 38%
    20:00 +26°C° 0 mm 2 mps 673 mmHg 42%
    21:00 +25°C° 0 mm 2 mps 673 mmHg 43%
    22:00 +25°C° 0 mm 2 mps 673 mmHg 45%
    23:00 +24°C° 0 mm 1 mps 673 mmHg 47%

    26 September, Wednesday

    Time Temperature Precipitation Wind Pressure Humidity
    00:00 +24°C° 0 mm 1 mps 672 mmHg 48%
    01:00 +23°C° 0 mm 2 mps 672 mmHg 50%
    02:00 +23°C° 0 mm 2 mps 671 mmHg 51%
    03:00 +23°C° 0 mm 2 mps 671 mmHg 54%
    04:00 +21°C° 0 mm 2 mps 672 mmHg 56%
    05:00 +21°C° 0 mm 2 mps 672 mmHg 59%
    06:00 +24°C° 0 mm 3 mps 673 mmHg 55%
    07:00 +25°C° 0 mm 4 mps 674 mmHg 52%
    08:00 +27°C° 0 mm 5 mps 675 mmHg 49%
    09:00 +28°C° 0 mm 5 mps 675 mmHg 43%
    10:00 +30°C° 0 mm 4 mps 674 mmHg 37%
    11:00 +33°C° 0 mm 4 mps 674 mmHg 31%
    12:00 +33°C° 0 mm 4 mps 674 mmHg 29%
    13:00 +34°C° 0 mm 4 mps 673 mmHg 26%
    14:00 +35°C° 0 mm 4 mps 672 mmHg 24%
    15:00 +34°C° 0 mm 4 mps 672 mmHg 26%
    16:00 +33°C° 0 mm 4 mps 672 mmHg 28%
    17:00 +32°C° 0 mm 4 mps 672 mmHg 31%
    18:00 +30°C° 0 mm 3 mps 672 mmHg 34%
    19:00 +28°C° 0 mm 3 mps 672 mmHg 38%
    20:00 +27°C° 0 mm 2 mps 673 mmHg 42%
    21:00 +27°C° 0 mm 2 mps 673 mmHg 43%
    22:00 +26°C° 0 mm 2 mps 673 mmHg 44%
    23:00 +26°C° 0 mm 2 mps 673 mmHg 44%

    27 September, Thursday

    Time Temperature Precipitation Wind Pressure Humidity
    00:00 +25°C° 0 mm 2 mps 672 mmHg 46%
    01:00 +25°C° 0 mm 2 mps 672 mmHg 48%
    02:00 +24°C° 0 mm 2 mps 671 mmHg 50%
    03:00 +24°C° 0 mm 2 mps 672 mmHg 52%
    04:00 +24°C° 0 mm 3 mps 672 mmHg 54%
    05:00 +22°C° 0 mm 3 mps 672 mmHg 56%
    06:00 +23°C° 0 mm 4 mps 673 mmHg 54%
    07:00 +26°C° 0 mm 4 mps 674 mmHg 52%
    08:00 +27°C° 0 mm 5 mps 675 mmHg 50%
    09:00 +29°C° 0 mm 5 mps 675 mmHg 43%
    10:00 +30°C° 0 mm 5 mps 675 mmHg 37%
    11:00 +33°C° 0 mm 5 mps 675 mmHg 30%
    12:00 +34°C° 0 mm 5 mps 675 mmHg 28%
    13:00 +34°C° 0 mm 5 mps 674 mmHg 26%
    14:00 +34°C° 0 mm 5 mps 673 mmHg 24%
    15:00 +34°C° 0 mm 4 mps 673 mmHg 25%
    16:00 +33°C° 0 mm 4 mps 673 mmHg 26%
    17:00 +32°C° 0 mm 4 mps 673 mmHg 27%
    18:00 +30°C° 0 mm 3 mps 673 mmHg 29%
    19:00 +29°C° 0 mm 3 mps 673 mmHg 32%
    20:00 +28°C° 0 mm 2 mps 674 mmHg 34%
    21:00 +27°C° 0 mm 2 mps 674 mmHg 35%
    22:00 +27°C° 0 mm 2 mps 674 mmHg 36%
    23:00 +26°C° 0 mm 2 mps 674 mmHg 37%
    Show more